Aeroporto :
LOGIN :

Iscrizione | Disclaimer

   EN    FR    IT 

 










Sommario :    VFR   VFR Marginale   IFR   IFR Intensivo   IFR Molto Intensivo
Visibilità : 
Base nubi : 
>= 8 km
>= 3000ft
5 / 8 km
1000 / 3000 ft
1500m / 5 km
500 / 1000 ft
800 / 1500m
200 / 500 ft
< 800m
< 200 ft
Simboli :   Temporali  Nebbia  Neve Forte  Precipitazioni Forti  Vento > 20 kt
SIGMETs :   Varie  Temporali  Ghiacco  Turbolenza  Onda orograficha  Ceneri Vulcaniche







- Altitudine del aeroporto : 26 ft


ETNT - Wittmundhaven AB

ULTIMO METAR :
  • 190720Z 07007KT 3000 R26/1100D MIFG BR FEW060 SCT300 13/12 Q1007 YLO

METARs OBSOLETI :
  • 190620Z 07006KT 4000 BR SCT060 BKN300 15/13 Q1006 GRN
  • 190520Z 08004KT 3000 MIFG BR SCT060 BKN300 13/12 Q1006 YLO

TAF TAF ETNT
Valido dal 19 a 08 ore il 19 a 17 ore UTC


190700Z 1908/1917 05005KT 4000 BR SCT060 BKN302
BECMG 1908/1909 04012KT 9999 NSW FEW025 BKN300
PROB30 1913/1917 08015G25KT 3000 TSRA SCT015 BKN030CB BY ETGL
Nessun NOTAM noto per questo aeroporto.



MetMap, La meteo Aeronautica in un colpo d'occhio ! - Copyright ORBIFLY Dicembre 2007 - Disclaimer

ORBIFLY MET'MAP TEAM :

Programmazione e sviluppo : Alexandra Zaïnal
Concezione e sviluppo : Baudouin d'Aumeries
Co-Programmazione e sviluppo : Marc-Olivier Méhu
Supporto tecnico e logistico : Manuel Goepfert
Aiuto per la traduzione : Arnaldo La Scala

Contatto : metmap@orbifly.com




FONTI E CREDITI :

   NOAA